Tracking 31027 objects as of 19-Jul-2025
HD Live streaming from Space Station
objects crossing your sky now

RADUGA 1

Track RADUGA 1 now!
RADUGA 1 is classified as:


NORAD ID: 8513
Int'l Code: 1975-123A
Perigee: 35,764.9 km
Apogee: 35,812.7 km
Inclination: 3.7 °
Period: 1,435.8 minutes
Semi major axis: 42159 km
RCS: 2.5118 m2 (large)
Launch date: December 22, 1975
Source: Commonwealth of Independent States (former USSR) (CIS)
Launch site: TYURATAM MISSILE AND SPACE COMPLEX (TTMTR)
Your satellite tracking list
GEOTAIL
Track 1 satellite(s)




NASA's NSSDC Master Catalog

Two Line Element Set (TLE):
1 08513U 75123A   25199.57317963 -.00000156  00000-0  00000-0 0  9995
2 08513   3.6659 272.0615 0005670 265.4970  48.1251  1.00289383191468
Source of the keplerian elements: AFSPC